www.pogodaiklimat.ru

Погода и климат >> Архив погоды >> Россия >> Нижегородская область >> Нижний Новгород аэропорт


ПОГОДА в Нижнем Новгороде аэропорт

  • Прогноз погоды в Нижнем Новгороде аэропорт
  • Монитор погоды в Нижнем Новгороде аэропорт

АРХИВ ПОГОДЫ в Нижнем Новгороде аэропорт

Время (UTC), дата Ветер
(напр.,м/с)
 
Видим.   Явления Облачность Т
(С)
Тd
(С)
f
(%)
Тe
(С)
Тes
(С)
Комфортность P
(гПа)
Po
(гПа)
Тmin
(С)
Tmax
(С)
R
(мм)
R24
(мм)
S
(см)
18 15.01 ЮЗ 8-12
{12}
10 км в посл. час снег 9/9 500 м
[Cb cap]
+0.1 -4.1 73 -7 -7 997.8 998.0
21 15.01 ЮЗ 6-9
{13}
10 км 6/6 900 м
[Sc]
-1.4 -7.1 65 -8 -8 999.9 1000.0
00 16.01 Ю 3-4
{10}
10 км 10/0
[Ac As]
-3.4 -6.3 80 -9 -9 1000.4 1000.0
03 16.01 Ю 2-3
{4}
10 км 10/0
[Ac As]
-4.9 -7.0 85 -9 -9 1000.2 1000.0 -5.9 0.0 33
06 16.01 ЮВ 2-3
{3}
10 км 10/6 420 м
[Sc Ac As]
-4.0 -6.4 83 -8 -8 999.1 999.0
09 16.01 Ю 1-1
{3}
4000 м слаб. снег 10/8 270 м
[Sc Ac As]
-4.3 -5.4 92 -7 -7 998.0 998.0
12 16.01 СЗ 2-3
{3}
3600 м слаб. снег 10/8 270 м
[Sc Ac As]
-3.9 -5.1 91 -8 -8 996.5 997.0
15 16.01 З 1-2
{5}
9000 м в посл. час снег 10/5 300 м
[Sc Ac trans]
-4.7 -5.7 93 -7 -7 996.7 997.0 -3.6
18 16.01 З 4-5
{6}
10 км {снег} 10/6 330 м
[Sc Ac trans]
-6.2 -8.0 87 -13 -13 997.8 998.0
21 16.01 З 4-6
{8}
10 км 10/10 330 м
[Sc]
-7.7 -9.3 88 -14 -14 1000.5 1001.0
00 17.01 ЮЗ 3-5
{8}
10 км в посл. час снег 10/10 330 м
[Sc]
-7.6 -9.7 85 -13 -13 1002.2 1002.0
03 17.01 ЮЗ 5-7
{8}
10 км 10/10 360 м
[Sc]
-8.2 -10.1 86 -16 -16 1003.7 1004.0 -8.2 0.0 35
06 17.01 Ю 5-6
{8}
10 км слаб. снег 10/10 600 м
[Sc]
-7.5 -9.9 83 -15 -15 1005.0 1005.0 -8.5
09 17.01 ЮЗ 6-8
{9}
10 км слаб. снег 9/8 400 м
[Frnb Ac trans]
-5.9 -8.3 83 -14 -14 1005.6 1006.0
12 17.01 Ю 6-7
{9}
10 км в посл. час снег 8/8 900 м
[Sc]
-4.5 -7.2 81 -12 -12 1004.9 1005.0
15 17.01 Ю 8-11
{12}
10 км позёмок 3/3 600 м
[Sc]
-4.2 -7.4 78 -13 -13 1003.4 1003.0 -4.2 0.0
18 17.01 Ю 8-10
{15}
5000 м метель {снег} 10/10 330 м
[Frnb]
-4.4 -6.8 83 -13 -13 1001.6 1002.0
21 17.01 Ю 8-11
{15}
2500 м метель {снег} 10/10 270 м
[Frnb Ns]
-4.3 -6.3 86 -13 -13 999.1 999.0
00 18.01 ЮЗ 9-14
{14}
10 км метель {снег} 10/10 400 м
[St]
-3.0 -5.5 83 -12 -12 997.6 998.0
03 18.01 ЮЗ 8-13
{14}
2000 м метель {ливн. осадки, снег} 10/10 360 м
[Cb cap]
-2.5 -4.7 85 -11 -11 997.5 998.0 -4.6 1 40
06 18.01 ЮЗ 7-12
{13}
10 км позёмок {ливн. осадки, снег} 10/10 420 м
[Sc]
-0.9 -3.4 83 -8 -8 999.0 999.0
09 18.01 ЮЗ 7-10
{12}
10 км позёмок 10/10 600 м
[Sc]
+0.1 -2.9 80 -7 -7 1000.7 1001.0
12 18.01 ЮЗ 7-10
{12}
10 км {метель} 10/10 600 м
[Sc]
+1.1 -2.3 78 -6 -6 1001.9 1002.0
15 18.01 ЮЗ 6-9
{11}
10 км 9/9 720 м
[Sc]
+0.4 -2.6 80 -6 -6 1003.3 1003.0 +1.2 0.0
18 18.01 Ю 6-8
{10}
10 км 8/5 600 м
[Sc Ac trans]
-1.6 -3.8 85 -9 -9 1002.8 1003.0
21 18.01 Ю 4-6
{11}
1800 м ливневой снег 10/10 240 м
[Cb cap]
-0.3 -1.4 92 -6 -6 1000.2 1000.0
00 19.01 ЮЗ 9-13
{13}
9000 м слаб. ливневой снег 10/10 270 м
[Cb cap]
+0.6 -0.7 91 -7 -7 999.2 999.0
03 19.01 ЮЗ 7-9
{14}
10 км {ливн. осадки, снег} 10/10 450 м
[Sc]
+1.5 -1.4 81 -5 -5 1000.0 1000.0 -2.0 1 45
06 19.01 СЗ 7-10
{14}
6000 м слаб. ливневой снег 10/10 300 м
[Cb cap]
-3.3 -5.6 84 -11 -11 1004.2 1004.0 -3.3
09 19.01 З 6-9
{9}
10 км {ливн. осадки, снег} 9/5 540 м
[Sc Ac trans]
-4.5 -8.6 73 -12 -12 1007.6 1008.0
12 19.01 З 3-4
{7}
10 км {ливн. осадки, снег} 1/0
[Ci fib]
-4.4 -9.2 69 -10 -9 1008.3 1008.0
15 19.01 ЮЗ 4-5
{7}
10 км 8/4 1000 м
[Sc Ac trans]
-5.1 -9.0 74 -11 -11 1009.1 1009.0 +1.8 0.4
18 19.01 ЮЗ 4-5
{7}
10 км 8/6 800 м
[Sc Ac trans]
-4.3 -8.4 73 -10 -10 1009.5 1010.0
21 19.01 ЮЗ 3-5
{5}
4300 м слаб. снег 10/10 300 м
[Sc]
-5.4 -7.2 87 -11 -11 1010.0 1010.0
00 20.01 З 4-6
{7}
8000 м слаб. снег 10/10 360 м
[Sc]
-5.6 -7.7 85 -12 -12 1011.0 1011.0
03 20.01 З 5-8
{9}
10 км {снег} 8/6 400 м
[Sc Ci fib]
-8.6 -11.6 79 -16 -16 1013.4 1013.0 -8.6 0.5 46
06 20.01 Ю 3-4
{8}
10 км {снег} 8/4 600 м
[Sc Ac trans Ci fib]
-11.8 -13.5 87 -18 -18 1014.4 1014.0 -13.1
09 20.01 Ю 3-5
{6}
10 км 8/5 400 м
[Frnb Ac trans Ci fib]
-8.3 -11.6 77 -14 -14 1013.9 1014.0
12 20.01 Ю 6-7
{9}
10 км 8/3 300 м
[Sc Ci fib]
-6.1 -10.6 70 -14 -14 1011.2 1011.0
15 20.01 Ю 4-7
{9}
10 км 9/9 480 м
[Sc]
-5.6 -9.8 72 -12 -12 1010.0 1010.0 -5.3
18 20.01 ЮЗ 8-11
{11}
3300 м слаб. ливневой снег 10/10 270 м
[Cb cap]
-5.2 -7.3 85 -14 -14 1009.1 1009.0
21 20.01 ЮЗ 7-11
{12}
3500 м слаб. снег 10/8 270 м
[Sc Ac As]
-5.4 -7.7 84 -14 -14 1009.0 1009.0
00 21.01 ЮЗ 6-9
{12}
10 км слаб. снег 10/8 480 м
[Sc Ac As]
-5.8 -8.4 82 -14 -14 1008.5 1009.0
03 21.01 ЮЗ 6-10
{10}
10 км 10/8 480 м
[Sc Ac As]
-5.7 -8.4 81 -14 -14 1007.9 1008.0 -6.0 0.7 44
06 21.01 ЮЗ 5-6
{8}
2300 м слаб. снег 10/8 270 м
[Sc Ac As]
-6.1 -7.9 87 -13 -13 1007.8 1008.0 -6.4
09 21.01 ЮЗ 5-7
{8}
10 км слаб. снег 9/8 420 м
[Sc Ac As]
-5.5 -8.4 80 -13 -13 1007.9 1008.0
12 21.01 ЮЗ 4-6
{7}
10 км слаб. ливневой снег 9/8 330 м
[Cb cap Ac trans]
-6.8 -9.2 83 -13 -13 1007.3 1007.0
15 21.01 1-4
{8}
10 км {ливн. осадки} 9/6 840 м
[Sc Ac trans]
-9.7 -11.2 89 -12 -12 1007.5 1008.0 -5.3 0.4
18 21.01 З 2-3
{6}
10 км {ливн. осадки} 4/4 1000 м
[Sc]
-11.7 -14.7 78 -16 -16 1007.9 1008.0
21 21.01 З 3-4
{6}
10 км в посл. час снег 9/3 300 м
[St Ci fib]
-15.0 -16.7 87 -22 -22 1008.7 1009.0
00 22.01 З 4-5
{6}
10 км в посл. час снег 9/8 300 м
[Sc Ci fib]
-14.5 -16.4 85 -22 -22 1009.5 1010.0
03 22.01 З 3-4
{5}
10 км слаб. снег 9/6 360 м
[Sc Ci fib]
-17.0 -18.9 85 -24 -24 1010.8 1011.0 -17.0 0.0 46
06 22.01 З 4-5
{6}
3800 м слаб. снег 9/6 270 м
[Sc Ci fib]
-17.8 -20.1 82 -26 -26 1012.1 1012.0 -18.2
09 22.01 З 3-3
{6}
5000 м слаб. снег 9/6 300 м
[Sc Ci fib]
-15.6 -18.4 79 -22 -22 1013.8 1014.0
12 22.01 З 4-3
{6}
10 км {снег} 8/0
[Ac trans Ci fib]
-14.6 -17.7 77 -22 -22 1014.7 1015.0

 

Местоположение метеостанции Нижний Новгород аэропорт (Нижегородская область, Россия): широта 56.22 долгота 43.77 высота над уровнем моря 77 м.

В архиве по умолчанию представлена погода в Нижнем Новгороде аэропорт за последнюю неделю. Архивные данные за месяц целиком и за предыдущие месяцы, начиная с января 2011 года, Вы можете получить, выбрав интересующий диапазон дат из раскрывающегося списка и нажав кнопку "Ввод!".


*Определитесь, кто Вы:
робот инопланетянин человек

Внимание! Время в таблицах - всемирное. Для получения местного времени необходимо прибавить поправку, которая равна 3 ч.

Смотрите также архив погоды в соседних городах и на ближайших метеорологических станциях:

Погода в Нижнем Новгороде (Нижегородская область, Россия) (15 км)
Погода в Балахне (Нижегородская область, Россия) (45 км)
Погода в Дальнем Константиново (Нижегородская область, Россия) (51 км)
Погода в Павлово (Нижегородская область, Россия) (55 км)
Погода в Волжской ГМО (Нижегородская область, Россия) (55 км)
Погода в Семенове (Нижегородская область, Россия) (73 км)
Погода в Лысково (Нижегородская область, Россия) (82 км)
Погода в Арзамасе (Нижегородская область, Россия) (95 км)
Погода в Вязниках (Владимирская область, Россия) (99 км)
Погода в Воскресенском (Нижегородская область, Россия) (121 км)

Пояснения к столбцам:

Ветер - указаны скорость ветра в м/с - средняя за 10 мин, порывы в срок и между сроками (в фигурных скобках) и направление, откуда дует ветер: С - северный, СВ - северо-восточный, В - восточный, ЮВ - юго-восточный, Ю - южный, ЮЗ - юго-западный, З - западный, СЗ - северо-западный.
Видимость - горизонтальная дальность видимости в метрах или километрах. При видимости от 1 до 10 км при отсутствии осадков обычно наблюдается дымка, при ухудшении видимости до 1 км и менее - туман. В сухую погоду видимость может ухудшаться дымом, пылью или мглою.
Явления - указаны атмосферные явления, наблюдавшиеся в срок или в последний час перед сроком; фигурными скобками обозначены явления, наблюдавшиеся между сроками (за 1-3 часа до срока); квадратными скобками обозначены град или гололедные отложения с указанием их диаметра в мм.
Облачность - указаны через наклонную черту общая и нижняя облачность в баллах и высота нижней границы облаков в метрах; квадратными скобками обозначены формы облаков: Ci - перистые, Cs - перисто-слоистые, Cc - перисто-кучевые, Ac - высококучевые, As - высокослоистые, Sc - слоисто-кучевые, Ns - слоисто-дождевые, Cu - кучевые, Cb - кучево-дождевые. Подробнее классификацию облаков см. в Атласе облаков (PDF).
T - Температура воздуха - температура, измеренная на высоте 2 м над землей.
Td - Температура точки росы - температура, при понижении до которой содержащийся в воздухе водяной пар достигнет насыщения.
f - Относительная влажность воздуха - влажноcть воздуха, измеренная на высоте 2 м над землей.
Te - Эффективная температура - температура, которую ощущает одетый по сезону человек в тени. Характеристика душности погоды. При расчете учитывается влияние влажности воздуха и скорости ветра на теплоощущения человека.
Tes - Эффективная температура на солнце - температура, которую ощущает человек, с поправкой на солнечный нагрев. Характеристика знойности погоды. Зависит от высоты солнца над горизонтом, облачности и скорости ветра. Ночью, в пасмурную погоду, а также при ветре 12 м/с и более поправка равна нулю.
P - Атмосферное давление - приведенное к уровню моря атмосферное давление.
Po - Атмосферное давление - измеренное на уровне метеостанции атмосферное давление.
Tmin - Минимальная температура - минимум температуры воздуха на высоте 2 м над землей.
Tmax - Максимальная температура - максимум температуры воздуха на высоте 2 м над землей.
R - Количество осадков - Количество выпавших осадков за период времени, мм. При наведении курсора мыши на число - период времени, за который выпало указанное количество осадков.
R24 - Количество осадков - Количество выпавших осадков за 24 часа, мм.
S - Снежный покров - Высота снежного покрова, см. При наведении курсора мыши на число - состояние снежного покрова и степень покрытия местности в баллах.